Location: Shenandoah County Park
(38.9356°N, 78.4524°W)
Time: 02:41:00
(UTC-04:00)

SR - Pass Details

Date: 16 February 2023
Orbit: 583 x 866 km, 66.7° (Epoch: 31 March)

Event Time Altitude Azimuth Distance (km) Brightness Sun altitude
Rises 19:04:46 0° 347° (NNW) 2,827 ? -14.7°
Reaches altitude 10° 19:07:55 10° 12° (NNE) 1,908 ? -15.3°
Enters shadow 19:09:34 14° 35° (NE) 1,650 ? -15.7°
Maximum altitude 19:10:21 15° 47° (NE) 1,618 - -15.8°
Drops below altitude 10° 19:12:46 10° 82° (E) 1,907 - -16.3°
Sets 19:15:54 0° 107° (ESE) 2,824 - -16.9°
